Lapse_Rate
5.3 5.3 5.6 5.7 5.8 5.9 6.1 6.3 6.5 6.7 6.7 6.7 6.8 7.0 7.0 7.0 7.0 7.0 7.1 7.1 7.3 7.3 7.3 7.8 8.0 8.2 7.9 8.4 8.6 8.5 9.5 9.5 9.5 9.4 9.4 9.2 8.3 7.6 7.3 7.0 6.7 6.5 6.1 5.1 5.7
5.1 5.2 5.3 5.5 5.6 5.7 5.9 6.0 6.3 6.5 6.8 6.8 6.9 6.9 6.9 7.0 7.1 7.1 7.2 7.2 7.5 7.6 7.5 8.0 7.7 7.6 8.6 8.7 9.0 9.4 9.6 9.5 9.4 9.0 9.4 9.2 8.4 7.9 7.6 6.9 7.2 7.3 6.7 5.7 4.7
5.1 5.1 5.2 5.3 5.4 5.6 5.8 6.0 6.1 6.3 6.6 6.9 7.0 7.0 7.0 7.0 7.1 7.0 7.3 7.4 7.5 7.6 7.7 7.9 7.9 7.7 8.7 9.3 9.2 9.6 9.6 9.6 9.6 8.6 9.4 9.3 8.5 8.5 8.2 7.5 6.8 7.5 7.1 6.1 5.1
5.1 5.1 5.2 5.2 5.4 5.5 5.8 6.0 6.1 6.3 6.5 6.7 7.0 7.1 7.1 7.0 7.0 7.3 7.3 7.3 7.5 7.6 7.7 7.8 7.7 8.1 9.5 9.6 8.8 9.6 9.3 9.2 9.1 8.6 9.4 8.8 9.2 8.1 8.5 7.6 7.7 7.5 7.2 6.5 5.4
5.1 5.1 5.2 5.2 5.3 5.6 5.7 6.0 6.2 6.4 6.5 6.7 6.9 7.1 7.2 7.1 6.9 7.3 7.4 7.3 7.4 7.5 7.7 7.6 7.7 8.3 9.5 9.2 8.9 9.6 9.6 9.5 9.4 8.6 9.2 8.9 9.2 7.8 7.4 7.3 7.7 7.6 7.3 6.6 5.7
5.2 5.2 5.2 5.3 5.4 5.6 5.8 6.0 6.3 6.5 6.6 6.8 6.9 7.0 7.1 6.9 7.0 7.4 7.5 7.5 7.5 7.5 7.8 7.7 7.8 8.0 8.4 8.6 9.0 8.8 8.8 9.3 9.5 8.7 8.7 9.0 8.2 8.1 7.1 7.5 7.7 7.5 7.0 6.1 6.2
5.3 5.3 5.3 5.4 5.5 5.7 5.8 6.1 6.3 6.5 6.7 6.8 6.9 7.0 7.1 6.5 7.2 7.4 7.5 7.6 7.5 7.4 7.2 7.5 7.5 7.9 8.4 8.8 8.6 8.8 9.2 9.6 9.6 9.4 8.8 9.3 9.0 8.2 7.2 7.3 7.5 6.7 6.2 6.1 6.4
5.5 5.4 5.4 5.5 5.6 5.7 5.9 6.1 6.3 6.5 6.7 6.8 6.8 6.9 6.6 7.1 7.2 7.3 7.2 7.3 7.4 7.4 7.2 7.3 8.1 8.0 8.1 8.4 8.6 9.3 9.6 9.6 9.6 9.4 8.7 9.3 9.2 8.0 7.6 7.3 7.0 6.4 6.2 6.2 6.4
5.6 5.5 5.4 5.5 5.6 5.7 5.9 6.1 6.2 6.4 6.6 6.7 6.8 6.8 6.4 7.1 7.1 7.1 7.2 7.2 7.3 7.3 7.5 7.7 7.9 7.8 8.4 8.5 9.6 9.6 9.6 9.6 9.6 9.7 9.2 9.4 9.1 8.4 8.1 7.7 7.2 6.7 6.5 6.2 6.2
5.7 5.7 5.6 5.5 5.7 5.8 5.9 6.1 6.2 6.4 6.5 6.6 6.6 6.7 7.0 7.0 6.9 7.0 7.1 7.0 7.3 7.3 7.4 7.6 7.5 8.0 8.4 9.5 9.6 9.7 9.7 9.6 9.7 9.6 9.7 9.6 9.3 8.6 8.6 8.2 7.7 7.2 6.7 6.6 6.5
5.8 5.8 5.8 5.6 5.6 5.8 5.9 6.1 6.1 6.3 6.5 6.5 6.3 6.4 6.4 6.5 7.1 7.1 7.1 7.1 7.1 6.7 7.2 7.4 7.8 8.3 9.6 9.6 9.5 9.6 9.7 9.7 9.7 9.7 9.7 9.7 9.5 9.0 8.7 9.2 8.2 7.7 7.3 6.9 6.5
5.9 5.8 5.8 5.9 5.6 5.7 5.8 5.9 5.9 6.0 6.1 6.4 6.3 6.2 6.3 7.1 6.9 7.1 7.1 6.9 6.7 7.2 7.5 7.8 8.0 8.8 9.5 9.2 8.9 9.5 9.7 9.7 9.7 9.6 9.6 9.7 9.6 9.4 8.9 9.1 8.7 8.2 7.6 7.3 7.1
6.1 6.0 5.8 5.9 5.9 5.7 5.7 5.8 5.9 6.1 6.2 6.5 6.5 6.4 6.6 6.4 6.6 6.5 7.3 7.0 7.1 7.4 7.8 8.3 8.8 8.6 8.4 8.4 9.0 9.6 9.7 9.7 9.7 9.6 9.6 9.7 9.7 9.2 8.6 8.8 9.2 8.6 8.1 7.8 7.4
6.4 6.1 6.0 5.9 5.9 6.0 5.6 5.8 5.9 6.0 6.2 7.0 6.5 6.5 6.3 6.5 6.7 6.7 7.2 7.1 7.2 7.7 8.0 8.2 8.6 8.3 8.1 8.8 9.2 9.6 9.5 9.6 9.7 9.7 9.6 9.4 9.9 9.6 9.4 8.6 8.8 8.6 8.4 8.2 7.8
6.7 6.4 6.2 6.0 6.0 5.9 6.1 5.8 5.9 6.1 7.8 7.8 7.0 6.9 6.8 6.6 7.4 6.8 6.9 7.0 7.5 7.8 7.8 8.2 8.4 8.1 8.2 8.7 9.2 9.6 9.0 9.2 9.6 9.7 9.6 9.6 9.7 9.5 9.6 9.5 9.2 8.9 8.7 8.5 8.1
6.5 6.7 6.4 6.2 6.2 6.1 6.0 5.9 5.8 6.1 7.8 7.4 6.4 6.7 6.7 6.8 7.2 7.1 6.8 7.1 7.5 7.7 8.0 9.1 8.2 8.1 8.3 9.3 9.3 9.3 8.6 8.6 9.0 9.6 9.8 9.7 9.7 9.5 9.6 9.6 9.6 9.5 8.9 8.5 8.3
5.9 6.5 6.6 6.5 6.1 6.5 6.3 6.0 6.0 6.9 8.0 7.8 6.8 6.9 7.2 7.1 7.3 7.0 6.8 6.8 7.2 7.5 7.8 7.9 8.1 8.4 8.6 9.2 8.4 8.4 8.9 9.6 9.8 9.9 9.9 9.6 9.7 9.7 9.6 9.6 9.2 9.6 9.4 8.8 8.3
5.6 6.0 6.5 6.5 6.5 6.4 6.2 5.9 6.4 7.1 8.0 8.2 7.5 7.4 7.4 7.5 7.4 7.1 7.1 7.1 7.5 7.9 8.7 8.4 8.7 8.2 8.1 8.5 8.6 8.5 9.6 9.7 9.4 9.8 9.8 9.2 9.6 9.6 9.4 8.6 8.7 8.7 9.3 9.3 8.7
5.3 5.6 6.3 6.3 6.4 6.5 6.3 5.8 6.1 7.4 7.9 8.1 7.9 7.8 7.6 7.9 7.9 7.3 7.2 7.4 7.6 8.0 8.8 9.5 9.5 9.2 8.5 8.5 9.5 9.3 9.5 9.6 9.7 9.6 9.7 9.6 9.5 9.5 8.7 8.7 8.4 8.5 8.9 9.4 9.2
5.2 5.3 6.0 6.2 6.3 6.3 6.0 5.8 6.7 7.3 7.9 8.1 8.3 8.2 8.1 8.0 7.9 7.6 7.5 7.6 7.8 7.9 8.6 9.6 9.7 9.6 9.3 8.8 9.1 9.4 9.4 9.6 9.6 9.7 9.6 9.7 9.6 9.7 9.0 8.8 8.2 8.2 8.5 9.2 9.3
4.8 5.0 5.1 6.0 6.2 5.9 5.5 5.9 6.7 7.6 8.0 7.6 8.0 8.9 8.5 8.9 8.7 8.3 7.8 8.0 7.9 8.1 8.3 8.9 9.3 9.6 9.4 8.1 8.8 8.5 8.9 9.6 9.6 9.7 9.8 9.8 9.6 9.0 8.7 8.4 8.3 8.2 8.1 8.3 8.5
4.6 4.6 4.7 5.8 5.6 5.5 5.6 6.1 6.9 7.5 7.9 7.4 7.6 8.4 9.6 9.4 9.4 8.4 8.2 8.1 8.2 8.3 8.1 8.4 9.2 9.3 9.5 8.7 8.4 9.6 9.6 9.6 9.6 9.5 9.6 9.5 9.4 9.0 8.6 8.5 8.2 8.5 8.1 8.0 8.1
4.4 4.3 4.1 5.4 5.1 5.5 6.2 6.5 6.9 7.4 7.8 7.5 7.5 7.9 8.1 9.0 9.3 9.2 8.2 8.8 8.8 8.2 8.5 8.4 8.7 9.5 9.6 9.3 8.6 9.0 9.6 9.6 9.6 9.7 9.7 9.8 9.5 9.0 8.9 8.7 8.4 8.3 8.4 7.9 8.0
4.5 5.0 4.6 5.5 5.2 6.0 6.7 6.7 7.0 7.1 7.6 7.9 7.8 8.0 8.2 8.1 8.4 9.2 8.9 9.5 9.2 8.1 8.5 8.4 9.0 8.6 9.6 9.5 9.4 8.6 8.8 9.6 9.6 9.6 9.6 9.6 9.2 9.0 8.8 8.5 8.3 8.1 8.0 8.0 7.5
5.1 5.3 6.2 5.8 5.4 5.7 6.1 6.9 7.2 7.4 7.3 7.6 8.0 8.0 8.2 8.1 8.3 8.6 9.2 9.6 8.5 8.1 8.3 8.3 8.2 8.6 9.1 9.6 9.6 9.6 9.5 9.6 9.6 9.6 9.6 9.7 9.6 9.5 8.4 8.0 8.3 8.4 8.1 8.1 7.8
5.7 5.8 5.6 5.5 5.1 5.7 6.0 6.5 7.0 7.3 7.9 7.3 7.7 8.0 8.3 8.2 8.6 9.5 9.0 9.6 8.3 8.3 8.2 8.2 8.4 8.4 9.5 9.6 9.6 9.7 9.6 9.6 9.6 9.6 9.6 9.6 9.6 9.2 8.2 7.9 7.7 7.4 8.0 7.9 8.1
5.4 5.7 5.5 5.8 5.7 5.8 6.1 6.4 6.7 7.6 8.0 8.0 7.8 8.2 8.4 8.2 8.7 9.4 9.5 9.6 9.2 8.5 8.2 8.5 8.7 8.6 9.3 9.6 9.6 9.6 9.6 9.6 9.6 9.6 9.6 9.6 9.6 8.8 8.1 7.7 7.6 7.6 6.9 7.1 7.5
Wind_Speed
22 22 21 20 19 18 18 17 16 12 10 11 11 9 9 10 13 7 9 2 3 13 5 10 10 12 12 9 12 12 4 9 12 14 15 8 16 15 16 15 14 18 20 21 25
23 23 22 22 21 19 18 18 16 14 10 10 10 8 8 8 10 14 6 9 9 13 10 9 8 6 10 4 6 13 10 8 6 9 4 7 17 14 16 16 20 22 21 19 22
24 24 24 23 22 21 20 18 16 14 11 9 9 6 6 7 8 8 8 14 10 13 13 9 9 10 6 6 1 7 12 5 12 8 2 11 10 4 10 18 16 21 21 18 17
24 25 24 25 23 22 21 19 17 12 9 9 5 5 4 8 6 7 6 11 11 14 12 10 9 12 8 1 0 5 5 5 8 8 2 14 9 17 17 19 20 21 21 18 17
25 25 25 25 25 24 22 20 17 11 8 7 4 4 5 8 9 7 11 9 12 13 12 10 10 9 8 2 5 8 8 3 6 8 10 8 15 15 18 20 21 21 19 18 16
26 26 26 26 25 25 24 20 16 12 7 5 5 4 7 13 8 12 12 12 13 12 11 9 7 7 8 3 9 6 4 2 5 9 7 15 11 19 17 20 20 18 18 17 17
26 27 27 27 27 26 25 20 14 10 6 5 7 5 10 2 1 10 11 13 12 13 9 7 5 10 3 8 2 6 9 10 11 11 7 17 10 18 18 19 18 17 16 16 16
26 27 27 28 27 28 26 19 10 6 5 6 7 9 6 5 4 9 12 11 9 9 9 4 7 11 9 5 11 12 15 12 11 10 10 8 13 16 17 18 17 16 15 15 16
27 27 28 28 28 27 26 18 3 5 4 7 7 9 7 4 10 12 11 13 12 9 5 2 10 14 8 13 14 11 9 18 11 8 12 10 16 16 17 16 16 15 15 15 15
28 28 29 30 28 27 25 11 2 6 6 8 9 8 8 12 13 12 12 10 13 11 10 12 9 12 12 14 10 11 9 14 14 10 11 10 18 14 16 17 16 15 15 15 16
28 30 30 31 30 26 15 4 5 7 12 11 10 8 9 7 12 12 13 13 15 14 15 14 11 12 16 12 9 11 3 8 10 7 8 11 18 14 14 16 16 16 15 15 16
28 30 32 33 32 27 7 8 8 6 9 21 13 17 2 12 12 14 16 15 15 16 17 9 15 15 6 2 5 8 8 9 7 7 10 7 14 16 14 14 17 17 17 16 16
28 30 33 36 36 8 10 12 4 8 7 16 17 16 14 14 12 17 20 19 17 19 18 15 17 13 6 11 11 12 11 11 8 10 12 4 12 15 16 14 16 16 17 17 17
27 29 31 40 8 8 8 3 7 4 6 15 16 15 20 14 14 19 21 15 12 19 16 15 5 9 12 15 16 16 10 5 7 7 13 13 9 16 18 15 15 17 17 16 17
27 27 28 19 12 6 8 7 10 5 6 19 20 12 19 19 11 20 20 15 15 14 11 16 11 15 16 15 12 6 2 7 11 12 16 11 9 18 18 18 19 17 18 19 17
28 27 27 5 9 13 14 10 7 8 12 9 11 18 22 20 13 21 20 18 13 15 17 15 13 16 17 15 8 4 5 6 9 13 12 10 9 14 17 16 16 22 22 19 19
31 31 16 14 6 8 8 8 8 12 9 10 19 22 25 17 20 22 24 22 17 16 16 18 12 13 14 12 8 9 12 8 7 9 8 10 7 8 4 9 5 7 23 22 20
33 38 10 12 12 10 8 9 15 15 19 4 17 21 26 23 22 21 22 21 23 20 15 16 16 21 13 14 11 13 18 10 4 11 10 6 7 5 8 3 3 6 13 22 21
40 10 10 11 17 8 8 15 21 20 18 9 12 18 24 24 23 22 25 24 25 23 20 17 18 22 18 19 16 14 14 12 6 4 5 9 5 3 7 5 2 7 13 15 20
9 10 13 12 12 10 11 24 21 26 17 15 17 16 22 27 25 25 24 25 25 26 20 8 13 20 14 15 15 11 11 7 6 5 6 7 2 3 6 1 4 5 9 14 19
7 6 6 12 9 10 18 25 29 22 16 15 16 17 20 21 25 22 22 18 25 25 21 20 12 19 16 15 15 13 11 11 14 5 5 6 8 11 7 4 4 1 3 6 8
7 8 9 10 11 13 19 29 23 29 22 17 16 18 17 21 24 25 23 24 19 23 25 22 10 13 20 18 20 19 19 16 10 9 8 8 11 14 10 5 2 4 3 6 11
5 10 8 10 11 18 21 26 28 26 26 21 22 15 16 14 19 23 25 21 17 22 23 19 16 14 16 9 11 14 14 18 15 9 5 7 7 8 8 6 1 5 5 5 6
5 5 9 10 14 22 22 26 28 28 26 23 22 22 19 15 17 16 21 19 22 15 10 20 17 19 16 15 16 19 21 18 13 9 12 13 12 12 10 4 4 1 3 8 9
5 8 6 9 16 21 21 22 26 27 27 20 23 25 22 16 19 19 17 19 12 10 13 18 22 20 21 17 20 20 21 16 17 14 14 2 6 11 11 5 3 2 3 4 5
6 5 8 13 14 16 21 24 26 25 24 21 23 26 22 19 17 15 19 17 18 17 16 21 15 20 21 23 10 12 21 20 19 16 14 16 8 15 10 4 3 1 2 1 4
8 7 7 10 15 13 16 23 24 18 26 26 25 20 22 22 16 15 18 13 15 17 18 19 17 16 20 19 16 18 16 15 14 14 16 12 6 11 8 3 3 5 2 0 3
Wind_Direction
1 360 359 357 355 354 348 346 341 338 326 315 311 300 289 295 292 237 253 90 148 163 226 242 237 253 244 249 251 249 44 54 16 46 99 123 89 88 82 85 71 88 112 127 128
359 356 355 354 351 349 347 342 338 332 326 314 308 294 282 298 263 256 159 120 145 184 220 224 238 253 243 226 258 267 79 69 45 63 87 60 91 131 108 96 96 100 108 125 136
357 354 352 351 348 345 343 338 334 328 320 312 301 274 270 281 270 224 130 150 181 199 261 278 280 271 264 279 290 348 62 31 76 30 23 120 95 128 141 115 122 126 130 138 135
355 352 350 347 345 342 339 335 330 325 315 308 291 254 256 237 236 81 162 159 200 219 256 251 243 248 267 171 93 256 92 33 57 100 139 104 131 66 66 95 124 130 135 140 139
353 350 347 344 342 339 336 332 325 320 313 300 257 222 233 215 257 107 140 158 186 214 232 235 251 259 267 357 240 282 79 342 83 105 79 130 92 84 92 110 125 132 139 145 137
350 347 343 342 339 336 333 329 317 309 299 274 220 215 241 239 90 129 163 172 195 212 223 241 271 346 311 304 291 20 329 302 117 125 168 109 136 111 111 124 131 142 145 147 144
348 345 342 340 338 335 333 326 310 293 266 224 213 242 250 319 121 156 173 195 199 218 220 234 286 262 349 244 4 282 254 197 155 156 170 125 157 106 132 136 142 148 150 144 154
346 343 340 338 336 335 333 328 309 269 215 202 219 244 279 118 187 176 187 192 197 222 263 203 253 274 265 351 259 235 223 165 143 179 133 215 106 131 145 146 149 153 152 154 158
344 341 339 336 335 334 331 328 318 179 205 195 220 234 224 140 196 192 192 188 190 204 209 242 248 253 232 245 224 214 219 128 150 210 147 230 119 140 159 153 153 159 159 163 164
341 340 337 334 332 331 324 298 224 192 218 214 273 229 211 208 186 173 191 210 188 194 202 219 230 242 215 229 221 186 212 141 146 174 204 121 113 155 167 159 162 165 166 168 170
340 337 335 331 327 327 317 200 207 199 207 227 177 244 138 130 144 188 181 192 197 198 215 203 222 219 222 229 1 323 191 135 112 133 244 175 137 155 172 168 168 167 171 178 177
339 337 333 329 324 320 275 253 45 342 279 214 243 228 253 169 181 181 180 186 197 203 215 185 230 225 234 87 248 246 246 164 133 154 251 151 153 150 178 188 168 172 173 180 178
337 335 332 326 320 288 265 290 337 317 257 221 204 210 192 203 208 176 189 207 195 206 202 224 206 232 185 198 223 228 230 166 215 181 244 166 165 161 176 191 168 182 174 181 174
335 334 333 329 301 335 267 139 294 298 269 193 197 213 201 204 221 172 201 207 198 208 204 230 178 180 204 223 222 221 207 337 227 198 220 204 228 178 171 188 189 188 180 187 171
330 330 329 321 310 271 23 311 315 242 252 163 171 185 182 196 151 176 193 209 220 214 204 211 194 204 208 225 211 290 130 222 240 229 256 189 269 172 177 184 189 200 188 188 181
324 323 330 282 225 265 301 292 261 230 236 165 142 180 174 201 178 162 188 219 234 215 212 220 204 199 214 220 210 159 223 227 242 252 225 240 227 149 185 195 201 186 185 195 183
318 312 305 293 232 354 308 258 219 233 219 175 180 190 192 188 182 175 188 197 206 206 203 224 203 216 233 182 195 213 206 202 216 221 249 171 191 274 38 77 354 268 179 182 186
315 308 259 229 246 251 253 223 235 212 225 85 187 192 202 189 193 180 190 198 214 210 190 207 204 207 195 211 186 218 230 251 181 216 184 155 236 235 50 73 177 267 258 177 187
313 288 252 231 222 241 231 220 215 237 211 207 209 195 203 204 198 189 203 207 201 218 235 195 227 187 195 222 211 195 242 278 295 250 297 169 176 228 167 234 239 238 233 202 180
312 291 259 209 181 198 221 231 227 231 258 265 222 218 207 207 197 194 201 207 210 212 234 249 214 177 191 215 215 269 214 216 251 242 234 153 155 95 150 188 91 252 220 234 180
266 253 102 146 198 207 220 224 230 241 229 243 244 229 230 208 204 215 210 211 211 202 215 242 246 179 182 208 205 211 244 239 279 243 298 214 136 104 98 9 331 169 203 242 199
281 237 130 174 207 221 223 224 236 228 240 230 268 265 241 221 216 213 215 219 198 218 202 225 208 239 188 211 228 216 207 228 246 188 257 310 109 123 119 108 354 327 90 273 198
262 251 155 208 224 229 219 229 231 238 233 206 234 242 259 254 236 218 227 220 183 219 207 205 234 218 221 170 215 225 235 222 223 263 208 240 122 128 124 128 96 313 310 167 237
274 240 213 209 249 261 234 217 223 231 240 232 230 236 232 243 245 238 215 213 207 209 206 204 214 238 218 202 202 210 234 235 219 205 233 212 148 179 135 68 98 200 249 300 176
243 245 302 216 222 236 254 236 222 217 228 238 236 229 227 224 232 219 231 202 193 156 201 208 223 224 249 244 207 193 218 208 228 239 256 322 238 92 102 76 50 358 318 269 263
290 280 310 254 300 246 226 245 220 220 212 215 236 220 232 221 238 209 233 198 190 184 218 207 217 230 238 242 233 248 190 209 213 233 241 256 266 101 105 166 213 243 292 242 250
272 294 271 280 238 251 235 223 245 228 224 230 222 233 218 229 230 247 220 249 182 195 212 209 219 214 233 229 237 234 243 234 230 221 242 247 250 118 131 90 355 317 231 228 115